Location: East Irvine
(33.6759°N, 117.7598°W)
Time: 23:23:37
(UTC+00:00)

Cosmos 540 Rocket - Pass Details

Date: 15 November 2025
Orbit: 735 x 747 km, 74.1° (Epoch: 13 December)

Event Time Altitude Azimuth Distance (km) Brightness Sun altitude
Rises 02:18:20 0° 346° (NNW) 3,191 6.8 -18.8°
Reaches altitude 10° 02:20:43 10° 349° (N) 2,262 5.9 -19.3°
Maximum altitude 02:25:49 67° 72° (ENE) 803 3.3 -20.3°
Drops below altitude 10° 02:30:52 10° 155° (SSE) 2,240 5.7 -21.4°
Sets 02:33:13 0° 158° (SSE) 3,157 6.6 -21.9°
